TimePDT,TemperatureF,Dew PointF,Humidity,Sea Level PressureIn,VisibilityMPH,Wind Direction,Wind SpeedMPH,Gust SpeedMPH,PrecipitationIn,Events,Conditions,WindDirDegrees,DateUTC
12:53 AM,69.1,53.1,57,30.04,10.0,South,3.5,-,N/A,,Mostly Cloudy,180,2013-08-17 07:53:00
1:53 AM,68.0,54.0,61,30.04,10.0,Calm,Calm,-,N/A,,Overcast,0,2013-08-17 08:53:00
2:53 AM,66.9,54.0,63,30.03,10.0,SSE,5.8,-,N/A,,Partly Cloudy,160,2013-08-17 09:53:00
3:53 AM,64.0,55.9,75,30.04,10.0,ESE,3.5,-,N/A,,Overcast,110,2013-08-17 10:53:00
4:53 AM,64.9,55.9,73,30.04,10.0,ESE,3.5,-,N/A,,Overcast,110,2013-08-17 11:53:00
5:53 AM,64.9,55.9,73,30.05,10.0,ESE,3.5,-,N/A,,Overcast,120,2013-08-17 12:53:00
6:53 AM,64.9,55.9,73,30.06,10.0,SE,4.6,-,N/A,,Scattered Clouds,130,2013-08-17 13:53:00
7:53 AM,66.9,54.0,63,30.07,10.0,SSE,8.1,-,N/A,,Scattered Clouds,160,2013-08-17 14:53:00
8:53 AM,68.0,55.0,63,30.08,10.0,SSE,6.9,-,N/A,,Clear,150,2013-08-17 15:53:00
9:53 AM,69.1,55.9,63,30.09,10.0,SSE,5.8,-,N/A,,Clear,150,2013-08-17 16:53:00
10:53 AM,71.1,57.9,63,30.09,10.0,SSE,6.9,-,N/A,,Clear,160,2013-08-17 17:53:00
11:53 AM,73.0,57.9,59,30.09,10.0,Variable,4.6,-,N/A,,Partly Cloudy,0,2013-08-17 18:53:00
12:53 PM,75.0,57.9,55,30.08,10.0,SSE,8.1,-,N/A,,Partly Cloudy,160,2013-08-17 19:53:00
1:53 PM,77.0,57.9,52,30.08,10.0,South,8.1,-,N/A,,Clear,180,2013-08-17 20:53:00
2:53 PM,75.9,57.9,54,30.07,10.0,SSW,8.1,-,N/A,,Scattered Clouds,210,2013-08-17 21:53:00
3:53 PM,78.1,57.0,48,30.06,10.0,SW,5.8,16.1,N/A,,Clear,220,2013-08-17 22:53:00
4:53 PM,77.0,57.0,50,30.05,10.0,SSW,3.5,-,N/A,,Clear,210,2013-08-17 23:53:00
5:53 PM,77.0,57.9,52,30.04,10.0,SW,5.8,-,N/A,,Clear,230,2013-08-18 00:53:00
6:53 PM,75.9,57.0,52,30.04,10.0,Variable,4.6,-,N/A,,Clear,0,2013-08-18 01:53:00
7:53 PM,73.9,57.0,55,30.04,10.0,SW,5.8,-,N/A,,Clear,220,2013-08-18 02:53:00
8:53 PM,72.0,57.0,59,30.06,10.0,SSW,4.6,-,N/A,,Clear,200,2013-08-18 03:53:00
9:53 PM,69.1,57.0,65,30.08,10.0,NW,4.6,-,N/A,,Clear,310,2013-08-18 04:53:00
10:53 PM,66.9,57.0,70,30.09,10.0,Calm,Calm,-,N/A,,Scattered Clouds,0,2013-08-18 05:53:00
11:53 PM,66.9,57.9,73,30.09,10.0,Calm,Calm,-,N/A,,Overcast,0,2013-08-18 06:53:00